#timestamp,LO_Frequency,Hit,StdDev 
1540512015.2,286046998.1,N
1540512035.0,286046998.1,N
1540512035.9,286046998.1,N
1540512055.8,286046999.9,N
1540512075.6,286047002.4,N
1540512095.5,286047001.0,N
1540512115.3,286047001.2,N
1540512135.1,286047000.8,N
1540512155.9,286046999.4,N
1540512175.7,286046999.3,N
1540512195.5,286046998.1,N
1540512215.4,286046998.8,N
1540512235.2,286046998.9,N
1540512255.1,286046996.6,N
1540512256.0,286046996.6,N
1540512275.8,286046999.1,N
1540512295.6,286046999.1,N
1540512315.5,286046997.5,N
1540512335.3,286046996.9,N
1540512355.2,286046996.7,N
1540512375.9,286046997.4,N
1540512395.7,286046999.3,N
1540512415.6,286046998.3,N
1540512435.4,286047001.2,N
1540512455.2,286046999.4,N
1540512475.1,286047000.7,N
1540512476.0,286047000.7,N
1540512495.7,286046999.1,N
1540512515.5,286046998.9,N
1540512535.4,286046999.0,N
1540512555.2,286046996.7,N
1540512575.0,286046999.2,N
1540512575.9,286046999.2,N
1540512595.8,286046996.7,N
1540512615.6,286046997.3,N
1540512635.5,286046997.3,N
1540512655.3,286046997.5,N
1540512675.1,286046997.7,N
1540512695.9,286046997.0,N
1540512715.7,286046997.4,N
1540512735.6,286046995.6,Y
1540512755.4,286046997.7,P
1540512775.2,286046997.7,P
1540512795.1,286046997.3,P
1540512796.0,286046997.3,Y
1540512815.8,286046999.0,P
1540512835.8,286046998.6,N
1540512855.6,286046998.8,N
1540512875.5,286046999.1,N
1540512895.3,286046999.0,N
1540512915.1,286046998.8,N
1540512935.9,286046998.7,Y
1540512955.7,286046998.3,P
1540512975.6,286046999.9,N
1540512995.4,286047002.2,P
1540513015.2,286046999.7,N
1540513035.1,286047002.3,N
1540513036.0,286047002.3,N
1540513055.8,286047002.6,N
1540513075.6,286047001.7,N
1540513095.5,286047001.7,N
1540513115.3,286047002.0,N
1540513135.2,286047002.8,N
1540513155.9,286047000.7,N
1540513175.7,286047000.0,N
1540513195.6,286047002.6,N
1540513215.4,286047002.7,N
1540513235.3,286047002.8,N
1540513255.1,286046999.7,N
1540513256.0,286046999.7,N
1540513275.8,286047002.2,N
1540513295.7,286047002.4,N
1540513315.5,286046998.1,N
1540513335.3,286046998.7,N
1540513355.2,286046998.6,N
1540513375.0,286047000.4,N
1540513375.9,286047000.4,N
1540513395.8,286047000.8,N
1540513415.6,286047001.0,N
1540513435.4,286046998.5,N
1540513455.3,286046998.2,N
1540513475.1,286047001.1,N
1540513495.9,286047000.8,N
1540513515.7,286047000.9,N
1540513535.5,286047000.5,N
1540513555.4,286046998.8,N
1540513575.2,286047002.8,N
1540513595.0,286047000.5,N
1540513595.9,286047000.5,N
1540513615.8,286047000.8,N
1540513635.6,286046999.9,N
1540513655.5,286047000.5,N
1540513675.3,286047002.3,N
1540513695.1,286047000.8,N
1540513715.9,286047000.2,N
1540513735.7,286047001.5,N
1540513755.5,286046999.7,N
1540513775.4,286047000.5,N
1540513795.2,286046998.5,N
1540513815.1,286046998.2,N
1540513816.0,286046998.2,N
1540513835.8,286047000.4,N
1540513855.6,286046999.7,N
1540513875.5,286047002.6,N
1540513895.3,286047002.4,N
1540513915.1,286046999.7,N
1540513935.9,286047002.3,N
1540513955.7,286046999.8,N
1540513975.6,286047002.5,N
1540513995.4,286046999.9,N
1540514015.2,286047000.1,N
1540514035.1,286047000.0,N
1540514036.0,286047000.0,N
1540514055.8,286047002.4,N
1540514075.6,286047002.4,N
1540514095.5,286047002.5,N
1540514115.3,286047002.5,N
1540514135.2,286047000.1,N
1540514155.9,286046999.9,N
1540514175.7,286046999.7,N
1540514195.6,286047000.3,N
1540514215.4,286047000.0,N
1540514235.2,286047002.7,N
1540514255.1,286047002.7,N
1540514256.0,286047002.7,N
1540514275.8,286046999.8,N
1540514295.7,286047000.1,N
1540514315.5,286047000.8,N
1540514335.3,286047000.5,N
1540514355.2,286047002.0,N
1540514375.9,286046998.1,N
1540514395.7,286047002.7,N
1540514415.6,286047002.2,N
1540514435.4,286047001.9,N
1540514455.2,286047001.4,N
1540514475.1,286047003.7,N
1540514476.0,286047003.7,N
1540514495.8,286047002.0,N
1540514515.7,286047002.6,N
1540514535.5,286047003.9,N
1540514555.3,286047002.9,N
1540514575.2,286047003.5,N
1540514595.0,286047003.6,N
1540514595.9,286047003.6,N
1540514615.8,286047003.1,N
1540514635.6,286047001.6,N
1540514655.4,286047001.6,N
1540514675.3,286047004.2,N
1540514695.1,286047001.3,N
1540514715.8,286047004.1,N
1540514735.7,286047003.8,N
1540514755.5,286047003.5,N
1540514775.3,286047004.1,N
1540514795.2,286047005.9,Y
1540514815.0,286047001.6,P
1540514815.9,286047001.6,P
1540514835.8,286047002.4,P
1540514855.6,286047000.1,N
1540514905.5,286047000.8,E
1540514915.4,286047000.9,N
1540514935.2,286047000.4,P
1540514955.1,286047001.2,P
1540514956.0,286047001.2,Y
1540514975.8,286046999.3,P
1540514995.7,286046998.7,N
1540515015.5,286047000.8,N
1540515035.3,286046998.1,N
1540515055.2,286047000.9,N
1540515075.0,286046998.8,N
1540515075.9,286046998.8,N
1540515095.7,286046999.1,N
1540515115.6,286046999.1,N
1540515135.4,286046998.6,N
1540515155.3,286046997.1,Y
1540515175.1,286046999.1,P
1540515195.6,286046999.0,P
1540515215.5,286046999.4,P
1540515235.3,286047000.7,Y
1540515255.2,286047000.6,P
1540515275.9,286046998.5,N
1540515295.7,286047000.5,N
1540515315.6,286047002.4,N
1540515335.4,286047000.6,N
1540515355.3,286047000.3,N
1540515375.1,286046999.0,N
1540515376.0,286046999.0,N
1540515395.8,286046998.6,N
1540515415.7,286047000.4,N
1540515435.5,286046999.9,N
1540515455.3,286046999.9,N
1540515475.2,286046999.9,N
1540515495.0,286047000.5,N
1540515495.9,286047000.5,N
1540515515.8,286047000.4,N
1540515535.6,286047000.4,N
1540515555.4,286047001.0,N
1540515575.3,286046998.3,N
1540515595.1,286047001.0,N
